Regional Weather Roundup
Issued by NWS

Home | Current Version | Previous Version | Graphics & Text | Print | Product List | Glossary On
Versions: 1 2 3 4 5 6 7 8 9 10 11 12 13 14 15 16 17 18 19 20 21 22 23 24 25 26 27 28 29 30 31 32 33 34 35 36 37 38 39 40 41 42 43 44 45 46 47 48 49 50
000
ASUS43 KDMX 232103
RWRIA

WEATHER ROUNDUP FOR IOWA
NATIONAL WEATHER SERVICE DES MOINES IA
400 PM CDT TUE AUG 23 2016

NOTE: "FAIR" INDICATES FEW OR NO CLOUDS BELOW 12,000 FEET WITH NO
SIGNIFICANT WEATHER AND/OR OBSTRUCTIONS TO VISIBILITY.

* - THESE STATIONS ARE NOT NWS STATIONS...THUS NOT UNDER NWS
QUALITY CONTROL.  THEY ALSO DO NOT REPORT WEATHER SUCH
AS PRECIPITATION OR FOG.

IAZ001>003-012>014-020>022-031>034-043>046-232200-
   NORTHWEST IOWA

CITY           SKY/WX    TMP DP  RH WIND       PRES   REMARKS
CARROLL *      CLOUDY    73  72  94 S14G21    29.92S
CHEROKEE *     CLOUDY    67  67 100 S6        29.87F
DENISON *      CLOUDY    75  72  88 S16G31    29.86S
LE MARS *      CLOUDY    70  66  88 SE9       29.85S
ORANGE CITY *  LGT RAIN  64  64 100 SE5       29.87R
SHELDON *      CLOUDY    64  64 100 SE9       29.86S
SIOUX CITY     CLOUDY    76  70  82 SE15      29.81F
SPENCER        TSTM      65  62  90 S10       29.91S
STORM LAKE *   CLOUDY    68  66  94 SE8       29.90R FOG
$$

IAZ055>058-069>071-079>083-090>094-232200-
   SOUTHWEST IOWA

CITY           SKY/WX    TMP DP  RH WIND       PRES   REMARKS
ATLANTIC *     CLOUDY    79  72  78 S18       29.90F HX  82
AUDUBON *      CLOUDY    77  72  83 SE13G20   29.92F
CLARINDA *       N/A     82  73  74 MISG      29.93F HX  88
COUNCIL BLFS * CLOUDY    81  73  78 SE18G26   29.87F HX  85
CRESTON *      CLOUDY    75  72  88 SE17      29.97F
HARLAN  *      CLOUDY    77  73  88 S13G24    29.91F HAZE
LAMONI         CLOUDY    75  72  90 SE13G18   29.98F
RED OAK *      CLOUDY    81  73  78 S21G28    29.89F HX  85
SHENANDOAH *   CLOUDY    84 -17   2 SE21      29.89F HX  80
$$

IAZ047>049-059>061-072>074-084-232200-
   CENTRAL IOWA

CITY           SKY/WX    TMP DP  RH WIND       PRES   REMARKS
AMES           CLOUDY    78  72  81 SE14G24   29.94F HX  80
ANKENY *         N/A    N/A N/A N/A MISG        N/A
BOONE *        CLOUDY    77  70  78 S15G22    29.94S
CHARITON *       N/A     75  72  88 MISG      29.99F
DES MOINES     CLOUDY    79  71  76 S14G23    29.96F HX  82
GRINNELL*      CLOUDY    79  68  69 SE12G20   30.01S HX  81
KNOXVILLE *    CLOUDY    77  70  78 S12G20    29.98R
MARSHALLTOWN   CLOUDY    79  68  69 SE20G28   29.96F HX  81
NEWTON *       CLOUDY    79  72  78 S12G20    29.98S HX  82
PERRY *        CLOUDY    77  73  88 S18       29.93F
$$

IAZ004>006-015-016-023>025-035-036-232200-
   NORTH CENTRAL IOWA

CITY           SKY/WX    TMP DP  RH WIND       PRES   REMARKS
ALGONA *       DRIZZLE   72  64  78 W23G35    30.02R
ESTHERVILLE    TSTM      63  63 100 S20G28    29.90S FOG
FORT DODGE *   CLOUDY    79  68  69 S8G18     29.92F HX  81
MASON CITY     CLOUDY    77  65  66 SE21G29   29.96F
FOREST CITY *    N/A     75  64  69 S17G23    29.95R
WEBSTER CITY * CLOUDY    79  70  73 S16G24    29.92R HX  81
IOWA FALLS *     N/A     80  68  67 SE15G24   29.97F HX  82
$$

IAZ007>011-017>019-026>030-037>042-050>054-066-232200-
   NORTHEAST IOWA

CITY           SKY/WX    TMP DP  RH WIND       PRES   REMARKS
CEDAR RAPIDS   CLOUDY    77  69  76 SE8G20    30.03F
CHARLES CITY * MOSUNNY   77  66  69 S16G24    29.98F
CLINTON *      CLOUDY    79  67  66 S13       30.09F HX  81
DECORAH *      MOSUNNY   79  64  61 S14G22    30.00F HX  81
DUBUQUE        MOSUNNY   77  65  66 S14G21    30.07F
MONTICELLO *   MOSUNNY   79  68  69 S13G23    30.05F HX  81
OELWEIN *      PTSUNNY   77  66  69 S14G23    30.02F
WATERLOO       MOSUNNY   79  64  60 S20       29.98F HX  81
$$

IAZ064-065-067-068-078-232200-
   EAST CENTRAL IOWA

CITY           SKY/WX    TMP DP  RH WIND       PRES   REMARKS
DAVENPORT      CLOUDY    78  65  63 S15G22    30.09F HX  80
IOWA CITY      PTSUNNY   79  68  69 S14       30.05F HX  81
MT. PLEASANT * PTSUNNY   82  71  68 SE13G18   30.06S HX  86
MUSCATINE *    PTSUNNY   81  66  61 S20G26    30.05F HX  83
QUAD CITIES    MOSUNNY   80  65  59 S17G23    30.08F HX  82
$$

IAZ062-063-075>077-085>089-095>099-232200-
   SOUTHEAST IOWA

CITY           SKY/WX    TMP DP  RH WIND       PRES   REMARKS
BURLINGTON     CLOUDY    78  70  76 S14       30.07F HX  80
FAIRFIELD *    PTSUNNY   81  70  69 S15G23    30.03F HX  84
FORT MADISON * CLOUDY    77  70  78 SE9G18    30.08S
KEOKUK *       CLOUDY    79  72  78 S9G20     30.06S HX  82
OSKALOOSA *    PTSUNNY   78  71  78 S12       30.02S HX  80
CENTERVILLE *  LGT RAIN  75  72  88 S9        30.04S
OTTUMWA        PTSUNNY   78  69  73 S15G25    30.00F HX  80
WASHINGTON *   CLOUDY    79  70  73 SE12G21   30.05F HX  81
$$

ABBREVIATIONS USED IN REMARKS
   TC - TEMPERATURES IN CELSIUS
  WCI - WIND CHILL INDEX
   HX - HEAT INDEX
  VSB - VISIBILITY
$$





USA.gov is the U.S. government's official web portal to all federal, state and local government web resources and services.